IRIDIUM 42

Satellite information

Favourite Embed

Satellite Type and Status

PAYLOADIN ORBIT

Key statistics

Satellite IRIDIUM 42 at a glance.

Uptime

10233

Days in orbit

Revolutions

≈ 14.4

Per day

Orbit

LEO

Low Earth Orbit

Inclination

86.4

Latest

Satellite identification and parameters

Extended collection of information and parameters for IRIDIUM 42.

Object identification

Identified? True

Debris? False

Object name: IRIDIUM 42

International designator: 1997-077A

Object number (NORAD): 25077

Object ID (CCSDS): 25077

Country: UNITED STATES OF AMERICA (US)

Current information (Y/N): Y

RCS size: LARGE

Orbital parameters

Period: 100.241 minutes

Inclination: 86.3977 deg

SMA: 7148.119 km

Apoapsis: 770.9 km

Periapsis: 769.068 km

RAAN: 164.709 deg

Eccentricy: 0.00012816

Argument of periapsis: 99.2771 deg

Mean anomaly: 260.8571 deg

Mean motion: 14.36531245 rev/day

Mean motion (dot): 0.00000711 rev/day2

B* drag term: 0.00023567943 1/REarth

Two-line elements (TLE)

Creation date: Dec. 12, 2025, 10:14 a.m.

Reference frame: TEME

Reference center: EARTH

Epoch: Dec. 12, 2025, 5:29 a.m. UTC

TLE line 0: 0 IRIDIUM 42

TLE line 1: 1 25077U 97077A 25346.22904463 .00000711 00000-0 23568-3 0 9997

TLE line 2: 2 25077 86.3977 164.7090 0001282 99.2771 260.8571 14.36531245466759

Live tracking on map

Real-time ground track for satellite IRIDIUM 42.

In-orbit conjunctions

A list of the most updated potential collisions computed for object IRIDIUM 42.

Target Orbit TCA Probability of collision Miss distance Type
FENGYUN 1C DEB SSO 2025-12-03 00:26:39 0.0001261379 105.0 (m) DEBRIS
FENGYUN 1C DEB SSO 2025-11-09 00:32:12 0.0001436856 231.0 (m) DEBRIS
FENGYUN 1C DEB SSO 2025-10-16 15:40:58 0.0003936895 441.0 (m) DEBRIS
CZ-6A DEB SSO 2025-06-08 23:53:17 0.00016066 667.0 (m) DEBRIS
FENGYUN 1C DEB SSO 2025-03-29 15:13:54 0.0002367582 463.0 (m) DEBRIS

Associated space launch

Iridium provides global mobile telecommunications services using a constellation of 66 low earth orbit satellites in a 86.4° inclined orbit. Although 77 satellites were originally envisioned for the system and spawned the name based on the 77th element in the periodic table, the system has been scaled back. Motorola's Satellite Communications Group designed and manufactured the Iridium satellites with Lockheed Martin providing the LM-700A spacecraft buses.

IRIDIUM 42 was lifted into orbit during the mission ‘Long March 2C/SD | Iridium 42 & 44’, on board a Long March 2C/SD space rocket.

The launch took place on Dec. 8, 1997, 7:16 a.m. from Launch Complex 7.

For more information about the launch, click the button.

Launch to space Long March 2C/SD | Iridium 42 & 44
Long March 2C/SD | Iridium 42 & 44

Agency: N/A

Status: Launch Successful

Launch date: Dec. 8, 1997, 7:16 a.m. UTC

Rocket: Long March 2C/SD

Launch pad: Launch Complex 7

Location: Taiyuan Satellite Launch Center, People's Republic of China

...

Latest news about this satellite

There are no fresh news available about this satellite. Check back as we update our databases every day.


Newsletter sign-up

Weekly statistics, charts and insights to help you stay on top of the space industry.